Regional Weather Roundup
Issued by NWS Bismarck, ND

Home | Current Version | Previous Version | Text Only | Print | Product List | Glossary On
Versions: 1 2 3 4 5 6 7 8 9 10 11 12 13 14 15 16 17 18 19 20 21 22 23 24 25 26 27 28 29 30 31 32 33 34 35 36 37 38 39 40 41 42 43 44 45 46 47 48 49 50
000
ASUS43 KBIS 271810
RWRBIS

NWR BROADCAST TEXT
NATIONAL WEATHER SERVICE BISMARCK ND
1200 PM CST THU NOV 27 2014

NOTE: "FAIR" INDICATES FEW OR NO CLOUDS BELOW 12,000 FEET WITH NO
SIGNIFICANT WEATHER AND/OR OBSTRUCTIONS TO VISIBILITY.


CITY           SKY/WX    TMP DP  RH WIND       PRES   REMARKS
WILLISTON      SNOW      20  16  84 E10       30.01F VSB 1/2 WCI   9
MINOT          CLOUDY    11   4  73 SE10      30.13F WCI  -3
MINOT AFB      CLOUDY    10   9  94 SE12      30.14F WCI  -4
BISMARCK       CLOUDY     7   3  84 SE14      30.21F WCI -10
DICKINSON      CLOUDY    19  15  84 S21G29    29.99F WCI   3
GARRISON         N/A     10   8  92 SE12      30.14F WCI  -5
HETTINGER ARPT CLOUDY    19  15  84 SE14      30.04F WCI   6
JAMESTOWN      CLOUDY     1  -7  68 S14       30.32F WCI -17
BEACH          MOCLDY    25  23  93 S24G30    29.93F WCI   9
CARRINGTON     CLOUDY     0  -4  85 SE13      30.29F WCI -18
CROSBY         FAIR      18  14  86 SE9       30.05F WCI   6
HARVEY         FAIR       5   1  85 SE8       30.23F WCI  -8
HAZEN          CLOUDY    12   7  79 SE9       30.14F WCI   0
LINTON         CLOUDY     5   1  85 SE13      30.23F WCI -12
MANDAN         CLOUDY     9   5  85 SE15      30.17F WCI  -8
OAKES            N/A      0  -2  92 S9        30.37F WCI -16
RUGBY          FAIR       1   0  92 SE10      30.24F WCI -14
STANLEY        MOCLDY    14  14 100 SE10      30.06F WCI   1
TIOGA          CLOUDY    16  16 100 SE14      30.06F WCI   1
$$

CITY           SKY/WX    TMP DP  RH WIND       PRES   REMARKS
GRAND FORKS    PTSUNNY    3  -5  69 S10       30.43F WCI -12
GRAND FORKS AF FAIR       4  -6  62 SW10      30.41F WCI -11
DEVILS LAKE    SUNNY      3  -9  55 S12       30.27F WCI -13
FARGO          SUNNY      2  -6  69 SE7       30.44F WCI -11
CANDO          FAIR       5   0  78 S9        30.28F WCI  -9
CAVALIER       FAIR       5  -2  72 S10       30.38F WCI -10
GRAFTON        FAIR       5  -2  72 S14       30.41F WCI -12
GWINNER        CLEAR      3  -4  72 S9        30.40F WCI -11
LANGDON        FAIR       5   0  78 SW16      30.28F WCI -14
ROLLA          FAIR       1   0  92 S12       30.21F WCI -15
WALHALLA         N/A      5   0  78 S12       30.37F WCI -11
$$

CITY           SKY/WX    TMP DP  RH WIND       PRES   REMARKS
ABERDEEN       SUNNY      4  -5  66 S13       30.37F WCI -13
MOBRIDGE       CLOUDY    12   4  70 SE18      30.18F WCI  -6
BUFFALO          N/A     22  18  85 S14       29.91F WCI   9
RAPID CITY     CLOUDY    24  21  88 SE10      30.02F WCI  14
GLASGOW        CLOUDY    26  23  88 E14       29.82F WCI  14
SIDNEY         PTSUNNY   27  19  74 SE16      29.98F WCI  14
WOLF POINT     FRZ RAIN  29  25  85 E13       29.87F WCI  19
GLENDIVE       PTSUNNY   28  21  74 SE10      29.91F WCI  19
MILES CITY     CLOUDY    31  26  82 SE14      29.88F
BAKER          CLOUDY    27  21  78 SE16      29.93F WCI  15
$$

CITY           SKY/WX    TMP DP  RH WIND       PRES   REMARKS
BILLINGS       MOSUNNY   42  30  62 SW22G28   29.90F
GREAT FALLS    SUNNY     53  35  50 SW32G43   29.78F
REGINA         LGT SNOW  10   7  85 SE14      30.04F DRFTSNOWWCI  -5
$$



USA.gov is the U.S. government's official web portal to all federal, state and local government web resources and services.